This is the latest recevied weather packets stored in our database for station/object K6CED. If no packets are shown the sender has not sent any weather packets the latest 10 day(s).
| Time | Temp. | Humidity | Pressure | Rain* | Wind** | Luminosity | Snow |
|---|---|---|---|---|---|---|---|
| 1777733111 | 13.33° C | 96% | 1017.1 hPa | 0 mm | - | 76 W/m² | - |
| 1777732808 | 13.33° C | 96% | 1017 hPa | 0 mm | - | 53 W/m² | - |
| 1777732504 | 13.33° C | 96% | 1017.1 hPa | 0 mm | - | 48 W/m² | - |
| 1777732202 | 13.33° C | 97% | 1017 hPa | 0 mm | - | 45 W/m² | - |
| 1777731900 | 13.33° C | 97% | 1017 hPa | 0 mm | - | 40 W/m² | - |
| 1777731596 | 13.33° C | 97% | 1017.1 hPa | 0 mm | - | 35 W/m² | - |
| 1777731294 | 13.33° C | 97% | 1017 hPa | 0 mm | - | 31 W/m² | - |
| 1777730991 | 13.33° C | 97% | 1017 hPa | 0 mm | - | 27 W/m² | - |
| 1777730689 | 13.33° C | 98% | 1017 hPa | 0 mm | - | 26 W/m² | - |
| 1777730385 | 13.33° C | 98% | 1016.7 hPa | 0 mm | - | 22 W/m² | - |
| 1777730081 | 13.33° C | 98% | 1017 hPa | 0 mm | - | 18 W/m² | - |
| 1777729778 | 13.33° C | 98% | 1016.7 hPa | 0 mm | - | 15 W/m² | - |
| 1777729474 | 13.33° C | 98% | 1016.7 hPa | 0 mm | - | 14 W/m² | - |
| 1777729171 | 13.33° C | 98% | 1016.5 hPa | 0 mm | - | 12 W/m² | - |
| 1777728867 | 13.33° C | 98% | 1016.7 hPa | 0 mm | - | 11 W/m² | - |
| 1777728565 | 13.33° C | 98% | 1016.9 hPa | 0 mm | - | 8 W/m² | - |
| 1777728262 | 13.33° C | 98% | 1016.6 hPa | 0 mm | - | 6 W/m² | - |
| 1777727959 | 13.33° C | 98% | 1016.6 hPa | 0 mm | - | 5 W/m² | - |
| 1777727656 | 13.33° C | 98% | 1016.5 hPa | 0 mm | - | 4 W/m² | - |
| 1777727353 | 12.78° C | 98% | 1016.3 hPa | 0 mm | - | 3 W/m² | - |
| 1777727050 | 12.78° C | 98% | 1016.2 hPa | 0 mm | - | 2 W/m² | - |
| 1777726747 | 12.78° C | 98% | 1016.1 hPa | 0 mm | - | 1 W/m² | - |
| 1777726444 | 12.78° C | 98% | 1015.9 hPa | 0 mm | - | 1 W/m² | - |
| 1777726141 | 12.78° C | 98% | 1016 hPa | 0 mm | - | 0 W/m² | - |
| 1777725838 | 12.78° C | 98% | 1016.2 hPa | 0 mm | - | 0 W/m² | - |
* Rain latest hour (hover to see other rain measurements)
** Current wind speed in m/s (hover to see current wind gust speed)